TimePST,TemperatureF,Dew PointF,Humidity,Sea Level PressureIn,VisibilityMPH,Wind Direction,Wind SpeedMPH,Gust SpeedMPH,PrecipitationIn,Events,Conditions,WindDirDegrees,DateUTC
12:02 AM,39.2,37.4,93,30.16,2.5,Calm,Calm,-,N/A,,Overcast,0,2012-12-29 08:02:00
12:11 AM,39.2,37.4,93,30.16,5.0,Calm,Calm,-,N/A,,Overcast,0,2012-12-29 08:11:00
12:53 AM,39.9,37.0,89,30.17,9.0,Calm,Calm,-,N/A,,Overcast,0,2012-12-29 08:53:00
1:25 AM,39.2,37.4,93,30.16,3.0,Calm,Calm,-,N/A,,Mostly Cloudy,0,2012-12-29 09:25:00
1:28 AM,39.2,37.4,93,30.16,2.5,Calm,Calm,-,N/A,,Mostly Cloudy,0,2012-12-29 09:28:00
1:35 AM,39.2,37.4,93,30.16,4.0,Calm,Calm,-,N/A,,Mostly Cloudy,0,2012-12-29 09:35:00
1:53 AM,39.9,37.9,93,30.18,7.0,Calm,Calm,-,N/A,,Overcast,0,2012-12-29 09:53:00
2:53 AM,39.9,37.9,93,30.19,6.0,Calm,Calm,-,N/A,,Overcast,0,2012-12-29 10:53:00
3:53 AM,41.0,39.0,93,30.18,10.0,Calm,Calm,-,N/A,,Overcast,0,2012-12-29 11:53:00
4:06 AM,39.2,37.4,93,30.17,10.0,SSW,4.6,-,N/A,,Overcast,210,2012-12-29 12:06:00
4:20 AM,39.2,37.4,93,30.17,10.0,SSW,3.5,-,N/A,,Overcast,200,2012-12-29 12:20:00
4:27 AM,39.2,37.4,93,30.17,10.0,South,3.5,-,N/A,,Overcast,190,2012-12-29 12:27:00
4:53 AM,39.9,37.9,93,30.18,10.0,Calm,Calm,-,N/A,,Overcast,0,2012-12-29 12:53:00
5:24 AM,39.2,37.4,93,30.17,9.0,Calm,Calm,-,N/A,,Overcast,0,2012-12-29 13:24:00
5:33 AM,39.2,37.4,93,30.17,9.0,Calm,Calm,-,N/A,,Overcast,0,2012-12-29 13:33:00
5:42 AM,39.2,37.4,93,30.17,9.0,Calm,Calm,-,N/A,,Overcast,0,2012-12-29 13:42:00
5:51 AM,39.2,37.4,93,30.17,10.0,Calm,Calm,-,N/A,,Overcast,0,2012-12-29 13:51:00
5:53 AM,39.9,37.9,93,30.18,10.0,Calm,Calm,-,N/A,,Overcast,0,2012-12-29 13:53:00
6:11 AM,39.2,37.4,93,30.17,9.0,Calm,Calm,-,N/A,,Overcast,0,2012-12-29 14:11:00
6:31 AM,41.0,37.4,87,30.17,10.0,Calm,Calm,-,N/A,,Overcast,0,2012-12-29 14:31:00
6:53 AM,39.9,37.0,89,30.18,10.0,Calm,Calm,-,N/A,,Overcast,0,2012-12-29 14:53:00
7:53 AM,39.9,36.0,86,30.18,10.0,SSW,4.6,-,N/A,,Overcast,200,2012-12-29 15:53:00
8:53 AM,39.9,34.0,79,30.20,10.0,SW,3.5,-,N/A,,Overcast,230,2012-12-29 16:53:00
9:53 AM,39.9,33.1,77,30.21,10.0,SW,3.5,-,N/A,,Overcast,220,2012-12-29 17:53:00
10:53 AM,39.9,34.0,79,30.19,10.0,SSE,4.6,-,0.00,,Overcast,160,2012-12-29 18:53:00
11:53 AM,41.0,34.0,76,30.17,10.0,Calm,Calm,-,N/A,,Overcast,0,2012-12-29 19:53:00
12:53 PM,41.0,33.1,73,30.17,10.0,South,4.6,-,N/A,,Overcast,190,2012-12-29 20:53:00
1:53 PM,41.0,34.0,76,30.16,10.0,South,5.8,-,0.00,Rain,Light Rain,190,2012-12-29 21:53:00
2:53 PM,39.2,35.6,87,30.15,10.0,SSW,5.8,-,N/A,,Overcast,200,2012-12-29 22:53:00
3:53 PM,39.9,36.0,86,30.16,10.0,SSW,3.5,-,0.01,,Overcast,200,2012-12-29 23:53:00
4:03 PM,39.2,37.4,93,30.15,10.0,Calm,Calm,-,N/A,,Overcast,0,2012-12-30 00:03:00
4:53 PM,39.9,36.0,86,30.17,10.0,Calm,Calm,-,N/A,,Overcast,0,2012-12-30 00:53:00
5:53 PM,39.0,37.0,93,30.17,4.0,Calm,Calm,-,0.02,Rain,Light Rain,0,2012-12-30 01:53:00
6:53 PM,39.9,37.0,89,30.18,10.0,Calm,Calm,-,0.00,,Overcast,0,2012-12-30 02:53:00
7:05 PM,39.2,37.4,93,30.17,9.0,Calm,Calm,-,N/A,,Overcast,0,2012-12-30 03:05:00
7:16 PM,39.2,37.4,93,30.17,7.0,Calm,Calm,-,N/A,,Overcast,0,2012-12-30 03:16:00
7:53 PM,39.9,37.0,89,30.18,10.0,Calm,Calm,-,N/A,,Overcast,0,2012-12-30 03:53:00
8:17 PM,39.2,37.4,93,30.18,8.0,Calm,Calm,-,N/A,,Overcast,0,2012-12-30 04:17:00
8:39 PM,39.2,37.4,93,30.18,8.0,Calm,Calm,-,N/A,,Overcast,0,2012-12-30 04:39:00
8:53 PM,39.9,37.0,89,30.20,8.0,Calm,Calm,-,N/A,,Overcast,0,2012-12-30 04:53:00
9:13 PM,39.2,37.4,93,30.19,6.0,Calm,Calm,-,0.01,Rain,Light Rain,0,2012-12-30 05:13:00
9:53 PM,39.9,37.0,89,30.21,9.0,Calm,Calm,-,0.01,,Overcast,0,2012-12-30 05:53:00
10:53 PM,39.9,37.0,89,30.23,10.0,Calm,Calm,-,N/A,,Overcast,0,2012-12-30 06:53:00
11:02 PM,39.2,37.4,93,30.22,9.0,Calm,Calm,-,N/A,,Overcast,0,2012-12-30 07:02:00
11:41 PM,39.2,37.4,93,30.23,3.0,NW,3.5,-,0.00,Rain,Light Rain,310,2012-12-30 07:41:00
11:49 PM,39.2,37.4,93,30.23,2.5,Calm,Calm,-,0.00,Rain,Light Rain,0,2012-12-30 07:49:00
11:53 PM,39.9,37.0,89,30.24,3.0,Calm,Calm,-,0.01,Rain,Light Rain,0,2012-12-30 07:53:00
11:59 PM,39.2,37.4,93,30.23,3.0,North,3.5,-,0.00,Rain,Light Rain,350,2012-12-30 07:59:00